{"data":{"norad_id":62565,"epoch":"2026-09-20T20:25:39.647712Z","epoch_age_seconds":140920,"freshness":"FRESH","line1":"1 62565U 25006M   26263.85115333  .00123197  00000+0  94965-3 0  9993","line2":"2 62565  43.0013  43.7557 0001620 310.1904  49.8822 15.70834219 97295","mean_motion":15.70834219,"eccentricity":0.000162,"inclination_deg":43.0013,"raan_deg":43.7557,"arg_perigee_deg":310.1904,"mean_anomaly_deg":49.8822,"bstar":0.00094965,"rev_number":9729,"period_min":91.671035847227,"perigee_km":355.42057172843,"apogee_km":357.60259786991,"semimajor_km":6734.6485847992,"source":"CELESTRAK","updated_at":"2026-09-22T09:00:49.628156Z"}}